[[{"header":{"parameterUnit":"m.s-1","parameterCategory":1,"la1":30.2991,"la2":30.254,"lo1":-89.0895,"lo2":-89.0444,"dy":0.0017,"dx":0.0017,"nx":28,"ny":28,"refTime":"2024-06-11T03:00:00:Z","depth":0,"parameterNumber":2,"parameterNumberName":"U-component_of_WINDS"},"data":[0,0,0,0,0,0,0,0,0,0,0,0,0,0,0,0,0,0,0,0,0,0,0,0,0,0,0,0,0,0,0,0,0,0,0,0,0,0,0,0,0,0,0,0,0,0,0,0,0,0,0,0,0,0,0,0,0,0,-3.2934,-3.2934,0,-3.2856,-3.2855,-3.2854,-3.2701,-3.2698,-3.2695,-3.2692,-3.2615,-3.2616,-3.2616,0,0,0,0,0,0,0,0,0,0,0,0,0,-3.2957,-3.2957,-3.2935,-3.2934,-3.2933,-3.2856,-3.2855,-3.2854,-3.2701,-3.2698,-3.2694,-3.2691,-3.2615,-3.2616,-3.2617,0,0,0,0,0,0,0,0,0,0,0,0,0,-3.292,-3.2957,-3.2935,-3.2847,-3.2839,-3.2856,-3.2855,-3.2854,-3.2702,-3.2698,-3.2693,-3.2689,-3.2614,-3.2616,-3.2617,-3.2714,0,0,-3.262,-3.2621,0,0,0,0,0,0,0,0,-3.2922,-3.2919,-3.2861,-3.2853,-3.2844,-3.2783,-3.2834,-3.2807,-3.2703,-3.2754,-3.2692,-3.2687,-3.2675,-3.2671,-3.2666,-3.2711,-3.2707,-3.262,-3.2621,-3.2621,-3.2622,0,0,0,0,0,0,0,-3.2925,-3.2922,-3.2903,-3.286,-3.285,-3.2813,-3.2803,-3.2829,-3.2741,-3.2749,-3.2738,-3.2731,-3.2669,-3.2665,-3.2663,-3.2706,-3.262,-3.2621,-3.2622,-3.2622,-3.283,-3.2834,0,0,0,0,0,0,-3.294,-3.2925,-3.2906,-3.2901,-3.2872,-3.2817,-3.2805,-3.2807,-3.274,-3.2726,-3.2735,-3.2724,-3.2666,-3.2662,-3.266,-3.2771,-3.2621,-3.2622,-3.2623,-3.2825,-3.2831,-3.2836,0,0,0,0,0,0,-3.2941,-3.2939,-3.2909,-3.291,-3.2903,-3.2821,-3.2825,-3.2808,-3.2804,-3.2729,-3.2713,-3.2746,-3.2662,-3.2658,-3.2702,-3.2766,-3.2623,-3.2624,-3.2819,-3.2827,-3.2833,-3.2994,0,0,0,0,0,0,-3.2942,-3.2941,-3.2976,-3.2912,-3.2904,-3.2952,-3.2829,-3.281,-3.2806,-3.2791,-3.2736,-3.2722,-3.2658,-3.2701,-3.2704,-3.2765,-3.2625,-3.2813,-3.2823,-3.2831,-3.2983,-3.3006,-3.3026,0,0,0,0,0,-3.2943,-3.3024,-3.2978,-3.2977,-3.2946,-3.2956,-3.2951,-3.2875,-3.2812,-3.2847,-3.28,-3.2724,-3.2759,-3.2707,-3.2708,-3.2771,-3.2809,-3.282,-3.283,-3.2973,-3.3001,-3.3025,0,0,0,0,0,0,-3.3098,-3.3014,-3.2962,-3.3025,-3.2999,-3.293,-3.2972,-3.2907,-3.2899,-3.2885,-3.2792,-3.2781,-3.2838,-3.2809,-3.2752,-3.2864,-3.2772,-3.2784,-3.288,-3.2907,-3.2928,-3.2934,-3.2626,0,0,0,0,0,-3.314,-3.3154,-3.308,-3.3142,-3.3132,-3.3055,-3.3056,-3.3,-3.2969,-3.2958,-3.2913,-3.2887,-3.2892,-3.2898,-3.2898,-3.2978,-3.2965,-3.3022,-3.3044,-3.3062,-3.3073,-3.3115,-3.3141,-3.2872,-3.2872,-3.2871,0,0,-3.3225,-3.3181,-3.3196,-3.3172,-3.3145,-3.3164,-3.3046,-3.307,-3.3083,-3.2961,-3.3,-3.2967,-3.2933,-3.2996,-3.3021,-3.2973,-3.3145,-3.3076,-3.3091,-3.3092,-3.3129,-3.3155,-3.3178,-3.2879,-3.2878,-3.2877,0,0,-3.3391,-3.3359,-3.3407,-3.3383,-3.3344,-3.3293,-3.3305,-3.3247,-3.322,-3.3257,-3.3167,-3.3182,-3.3192,-3.3172,-3.3163,-3.3325,-3.3256,-3.3327,-3.344,-3.3482,-3.3504,-3.3522,-3.3581,-3.3603,-3.3339,-3.3339,-3.334,0,-3.3503,-3.3525,-3.3441,-3.3471,-3.3465,-3.3355,-3.3405,-3.3386,-3.335,-3.3349,-3.3296,-3.3308,-3.3277,-3.3335,-3.3374,-3.337,-3.3383,-3.3333,-3.3507,-3.3525,-3.3541,-3.3596,-3.3618,-3.3348,-3.3347,-3.3346,-3.3345,0,-3.3665,-3.3683,-3.3727,-3.3695,-3.3693,-3.3733,-3.3657,-3.3666,-3.3611,-3.3566,-3.3607,-3.3566,-3.3558,-3.3567,-3.3513,-3.3618,-3.359,-3.3524,-3.343,-3.3577,-3.3627,-3.3647,-3.3361,-3.3358,-3.3355,-3.3353,0,0,-3.3924,-3.3846,-3.3864,-3.3849,-3.3799,-3.3812,-3.3848,-3.3839,-3.3849,-3.3829,-3.3858,-3.3871,-3.381,-3.38,-3.3743,-3.3781,-3.3913,-3.3709,-3.3707,-3.375,-3.4029,-3.4079,-3.4105,-3.3867,-3.3871,-3.3874,-3.4032,0,-3.4079,-3.4135,-3.4062,-3.4135,-3.4152,-3.405,-3.4082,-3.4056,-3.4016,-3.4025,-3.398,-3.3992,-3.3909,-3.3903,-3.3935,-3.389,-3.3968,-3.3878,-3.3895,-3.3897,-3.3908,-3.4131,-3.4184,-3.4335,-3.4051,-3.4054,-3.4057,0,-3.4266,-3.4255,-3.433,-3.4277,-3.4281,-3.4311,-3.4298,-3.4308,-3.4278,-3.4246,-3.4237,-3.4169,-3.4203,-3.4113,-3.416,-3.41,-3.4103,-3.4083,-3.4087,-3.4086,-3.3986,-3.4137,-3.4381,-3.4404,-3.4086,-3.4084,-3.4082,0,-3.445,-3.4453,-3.4498,-3.4489,-3.4428,-3.4452,-3.4428,-3.4393,-3.4393,-3.4383,-3.4382,-3.4377,-3.4374,-3.4372,-3.4305,-3.4245,-3.4362,-3.4265,-3.4338,-3.434,-3.4366,-3.4366,-3.4615,-3.4368,-3.4368,-3.4368,-3.4367,0,-3.463,-3.468,-3.458,-3.4608,-3.4662,-3.4579,-3.4636,-3.4601,-3.4572,-3.4593,-3.4505,-3.4527,-3.4437,-3.4451,-3.4399,-3.4448,-3.4447,-3.4423,-3.4409,-3.4431,-3.4435,-3.4432,-3.442,-3.4373,-3.4372,-3.4371,-3.437,0,-3.4843,-3.4778,-3.4821,-3.4761,-3.4747,-3.479,-3.4739,-3.4764,-3.4718,-3.4747,-3.4749,-3.4679,-3.469,-3.4624,-3.4623,-3.4588,-3.4662,-3.463,-3.4673,-3.4663,-3.474,-3.4734,-3.4997,-3.5028,-3.4761,-3.4764,-3.4766,0,-3.4962,-3.4998,-3.4943,-3.495,-3.4931,-3.4944,-3.4944,-3.4865,-3.4869,-3.4839,-3.4868,-3.4872,-3.4871,-3.4894,-3.4844,-3.4844,-3.4812,-3.4904,-3.4811,-3.4833,-3.4814,-3.4813,-3.4817,-3.4923,-3.4927,-3.4929,-3.4932,0,-3.5182,-3.5148,-3.5151,-3.5143,-3.5146,-3.5136,-3.5121,-3.5133,-3.5047,-3.5057,-3.5067,-3.5066,-3.5066,-3.5072,-3.5063,-3.504,-3.4973,-3.4962,-3.4978,-3.5002,-3.5025,-3.5015,-3.4726,-3.4956,-3.4953,-3.4951,-3.495,-3.4949,-3.5351,-3.538,-3.5346,-3.5352,-3.5333,-3.5321,-3.5342,-3.53,-3.5307,-3.53,-3.5254,-3.5274,-3.5245,-3.5225,-3.5209,-3.5225,-3.5181,-3.5205,-3.5211,-3.5219,-3.5233,-3.5023,-3.5222,-3.5222,-3.5221,-3.522,-3.522,0,-3.5567,-3.554,-3.5547,-3.5529,-3.5535,-3.5471,-3.5452,-3.5462,-3.548,-3.5458,-3.546,-3.5473,-3.548,-3.5431,-3.5431,-3.5454,-3.5423,-3.5456,-3.5454,-3.545,-3.5271,-3.5257,-3.5481,-3.5481,-3.5481,-3.5481,-3.5481,-3.5481,-3.568,-3.5725,-3.5688,-3.5724,-3.5696,-3.5715,-3.571,-3.5699,-3.5682,-3.5701,-3.5705,-3.5674,-3.5642,-3.564,-3.5644,-3.5629,-3.5634,-3.5679,-3.5654,-3.5488,-3.5463,-3.5438,-3.5424,-3.568,-3.568,-3.5831,-3.5833,-3.5834]},{"header":{"parameterUnit":"m.s-1","parameterCategory":1,"la1":30.2991,"la2":30.254,"lo1":-89.0895,"lo2":-89.0444,"dy":0.0017,"dx":0.0017,"nx":28,"ny":28,"refTime":"2024-06-11T03:00:00:Z","depth":0,"parameterNumber":3,"parameterNumberName":"V-component_of_WINDS"},"data":[0,0,0,0,0,0,0,0,0,0,0,0,0,0,0,0,0,0,0,0,0,0,0,0,0,0,0,0,0,0,0,0,0,0,0,0,0,0,0,0,0,0,0,0,0,0,0,0,0,0,0,0,0,0,0,0,0,0,0.6464,0.6464,0,0.6407,0.6406,0.6406,0.6386,0.6386,0.6387,0.6387,0.6323,0.6322,0.632,0,0,0,0,0,0,0,0,0,0,0,0,0,0.6554,0.6553,0.6465,0.6464,0.6463,0.6407,0.6406,0.6405,0.6386,0.6386,0.6387,0.6387,0.6324,0.6322,0.6319,0,0,0,0,0,0,0,0,0,0,0,0,0,0.6508,0.6552,0.6465,0.6447,0.6445,0.6407,0.6406,0.6405,0.6386,0.6386,0.6387,0.6387,0.6325,0.6322,0.6319,0.6294,0,0,0.631,0.6309,0,0,0,0,0,0,0,0,0.651,0.6504,0.645,0.6448,0.6445,0.6404,0.6415,0.6368,0.6386,0.6408,0.6387,0.6387,0.635,0.6345,0.6333,0.6291,0.6288,0.631,0.6308,0.6307,0.6306,0,0,0,0,0,0,0,0.6514,0.6507,0.6442,0.6449,0.6446,0.644,0.6434,0.6406,0.6377,0.6406,0.6405,0.6398,0.6348,0.6336,0.6331,0.6287,0.631,0.6308,0.6306,0.6305,0.6222,0.6221,0,0,0,0,0,0,0.652,0.651,0.6443,0.644,0.648,0.6439,0.6432,0.6417,0.6378,0.6372,0.6398,0.6398,0.6341,0.6335,0.6329,0.6297,0.6307,0.6304,0.6303,0.6222,0.6222,0.6221,0,0,0,0,0,0,0.6522,0.6515,0.6446,0.6474,0.6465,0.6437,0.642,0.6416,0.6403,0.6372,0.6366,0.6391,0.6341,0.6333,0.6303,0.6294,0.6303,0.6301,0.6223,0.6222,0.6221,0.6232,0,0,0,0,0,0,0.6525,0.6516,0.6506,0.6474,0.6464,0.6422,0.642,0.6414,0.6399,0.6397,0.6363,0.6358,0.634,0.6308,0.63,0.629,0.6298,0.6223,0.6223,0.6222,0.6232,0.6232,0.6231,0,0,0,0,0,0.6528,0.6511,0.6506,0.6498,0.6452,0.6421,0.6415,0.6397,0.6398,0.6388,0.6368,0.6359,0.6297,0.6305,0.6296,0.6285,0.6224,0.6223,0.6222,0.6233,0.6232,0.6231,0,0,0,0,0,0,0.6541,0.6506,0.6501,0.6472,0.645,0.6418,0.6405,0.6397,0.6372,0.6372,0.6349,0.6342,0.6313,0.6296,0.6306,0.6259,0.626,0.6257,0.6271,0.627,0.627,0.6274,0.6296,0,0,0,0,0,0.6541,0.652,0.649,0.6468,0.6458,0.6433,0.6419,0.6407,0.6383,0.6373,0.6351,0.6326,0.6301,0.6285,0.626,0.6231,0.6222,0.6219,0.6219,0.6218,0.6216,0.6198,0.6196,0.6218,0.6218,0.6218,0,0,0.6539,0.6518,0.6506,0.647,0.6452,0.643,0.6425,0.6402,0.6385,0.6369,0.6339,0.6322,0.6293,0.6264,0.6249,0.6249,0.6208,0.6217,0.6217,0.6214,0.6197,0.6195,0.6193,0.6217,0.6217,0.6217,0,0,0.6525,0.6507,0.6487,0.6469,0.6442,0.6426,0.6421,0.6391,0.6379,0.635,0.6337,0.6316,0.6274,0.6254,0.6238,0.6218,0.6208,0.6211,0.6207,0.6191,0.6189,0.6188,0.618,0.6177,0.6208,0.6208,0.6208,0,0.6526,0.6494,0.6477,0.6455,0.6439,0.6426,0.6404,0.6387,0.6352,0.6341,0.6342,0.6289,0.6268,0.6233,0.6229,0.6217,0.621,0.6214,0.6191,0.6189,0.6187,0.618,0.6177,0.6209,0.6209,0.6209,0.6209,0,0.6496,0.6474,0.6461,0.6429,0.6412,0.6391,0.637,0.6354,0.6344,0.6328,0.6299,0.6274,0.6244,0.6235,0.6224,0.6199,0.6199,0.6196,0.6196,0.6186,0.6178,0.6175,0.6209,0.6209,0.6209,0.6209,0,0,0.6486,0.6448,0.6443,0.6428,0.6398,0.638,0.6357,0.633,0.6317,0.6294,0.6274,0.6239,0.6236,0.6218,0.6205,0.6191,0.6176,0.6189,0.6188,0.6187,0.6146,0.6148,0.6145,0.6171,0.617,0.6169,0.6148,0,0.6467,0.6428,0.6413,0.638,0.6359,0.6347,0.6327,0.6306,0.6291,0.627,0.6252,0.6228,0.6226,0.6215,0.6201,0.6181,0.6167,0.6183,0.615,0.6149,0.6156,0.6141,0.6142,0.6123,0.6145,0.6144,0.6144,0,0.644,0.6418,0.6384,0.6357,0.6347,0.633,0.6304,0.6284,0.626,0.625,0.6231,0.6219,0.6194,0.6198,0.6162,0.6173,0.6159,0.6148,0.6146,0.6141,0.6145,0.6134,0.6117,0.6113,0.6139,0.614,0.614,0,0.6435,0.6397,0.6372,0.636,0.6328,0.6316,0.6302,0.6278,0.6263,0.6239,0.6229,0.6203,0.6188,0.6168,0.6149,0.6153,0.6116,0.6117,0.6105,0.6106,0.6096,0.6097,0.6075,0.609,0.609,0.609,0.609,0,0.6414,0.6393,0.6369,0.6353,0.633,0.6313,0.6289,0.6274,0.6253,0.6234,0.6221,0.6203,0.618,0.6158,0.6144,0.6116,0.611,0.61,0.6096,0.61,0.6102,0.609,0.609,0.6089,0.6089,0.6089,0.609,0,0.6404,0.6387,0.6358,0.6331,0.6324,0.6307,0.6283,0.6267,0.6253,0.6228,0.6221,0.6197,0.6171,0.6151,0.6117,0.6107,0.6078,0.6074,0.6086,0.6084,0.6073,0.6074,0.6042,0.6036,0.6056,0.6056,0.6056,0,0.6391,0.6375,0.6347,0.6333,0.632,0.6298,0.6283,0.6266,0.625,0.6222,0.6209,0.6183,0.6161,0.612,0.6099,0.6072,0.6067,0.6058,0.6063,0.6068,0.6066,0.6066,0.6064,0.6057,0.6056,0.6056,0.6056,0,0.637,0.6363,0.6342,0.6318,0.6301,0.6281,0.6261,0.6251,0.623,0.6213,0.6188,0.6171,0.6137,0.611,0.6083,0.6067,0.6057,0.6056,0.6051,0.6054,0.6062,0.6056,0.6083,0.6056,0.6056,0.6056,0.6056,0.6056,0.6357,0.6342,0.632,0.6297,0.6281,0.6263,0.6247,0.6231,0.6209,0.6181,0.6173,0.6146,0.6122,0.6084,0.6068,0.6047,0.6046,0.604,0.6038,0.6036,0.6036,0.6067,0.6041,0.6041,0.6041,0.6041,0.6041,0,0.6334,0.632,0.6299,0.6272,0.6255,0.625,0.6228,0.6213,0.619,0.617,0.6149,0.612,0.6094,0.6072,0.6046,0.6032,0.6028,0.6026,0.6026,0.6022,0.6039,0.6045,0.603,0.603,0.603,0.603,0.603,0.603,0.6319,0.6294,0.6285,0.6251,0.6237,0.6212,0.62,0.6183,0.6166,0.6135,0.6114,0.6101,0.6079,0.6052,0.6028,0.6022,0.6012,0.6011,0.6004,0.602,0.6021,0.6022,0.6028,0.601,0.601,0.5989,0.5989,0.5989]}]]